Location: Newark
(43.6583°N, 1.6617°E)
Time: 04:04:27
(UTC+00:00)

Vanguard 1 Rocket - Pass Details

Date: 23 August 2019
Orbit: 650 x 4226 km, 34.3° (Epoch: 20 October)

Event Time Altitude Azimuth Distance (km) Brightness Sun altitude
Rises 08:51:20 0° 258° (WSW) 4,504 10.6 38.9°
Reaches altitude 10° 08:56:20 10° 232° (SW) 4,167 10.7 39.7°
Maximum altitude 09:01:03 13° 208° (SSW) 4,479 11.1 40.5°
Drops below altitude 10° 09:06:57 10° 184° (S) 5,437 11.7 41.4°
Sets 09:16:13 0° 164° (SSE) 7,354 12.5 42.9°
